Terminal Aerodrome Forecast
Issued by NWS Albany, NY

Home | Current Version | Previous Version | Text Only | Print | Product List | Glossary On
Versions: 1 2 3 4 5 6 7 8 9 10 11 12 13 14 15 16 17 18 19 20 21 22 23 24
000
FTUS41 KALY 050806 AAA
TAFALB
TAF AMD
KALB 050806Z 0508/0606 27008KT P6SM BKN040 BKN080
     FM051200 32008KT P6SM SCT050 SCT080 SCT250
     FM051600 33009KT P6SM BKN250
     FM060300 34004KT P6SM SCT100 OVC250=

USA.gov is the U.S. government's official web portal to all federal, state and local government web resources and services.